Weather in Mindigulovo

Russia / Republic of Bashkortostan     53°03′10″N   57°20′22″E
temp.,
°C
wind,
m/s
gust,
m/s
humid.,
%
clouds,
%
prec.,
mm/h
press.,
hPa
HPBL,
m
7 march, sun
sun723:00−11s1196100 0.0 101421
02:00−11sse1195100 0.0 101221
05:00−10ne1197100 0.5 101022
08:00−10n1396100 1.2 1008117
11:00−8nnw3591100 1.8 1007554
14:00−7nw4676100 0.3 1007933
17:00−9nw477871 0.3 1009953
20:00−16wnw229652 0.0 101231
8 march, mon
mon823:00−18wsw1210053 0.0 101420
02:00−17ssw2298100 0.1 101460
05:00−16ssw31196100 0.3 1013388
08:00−14ssw41595100 0.2 1011533
11:00−11ssw71589100 0.9 1009720
14:00−7sw81691100 1.1 10071202
17:00−5sw81592100 2.9 10071189
20:00−5sw61393100 1.1 10081178
9 march, tue
tue923:00−5sw61294100 2.3 10101003
02:00−5sw51295100 1.4 1009847
05:00−6ssw61394100 2.7 1008813
08:00−7ssw61394100 1.4 1007777
11:00−5sw61293100 2.3 1007778
14:00−3sw61191100 0.6 1008972
17:00−5w4792100 1.9 1008631
20:00−9s0092100 0.1 100821
10 march, wed
wed1023:00−9ene1297100 0.6 100793
02:00−8ene2397100 2.3 1004145
05:00−9wnw3596100 4.9 1004225
08:00−12wnw41194100 0.3 1005545
11:00−10wnw489197 0.4 1006582
14:00−9wnw5787100 0.1 1008908
17:00−11w4790100 0.3 1010788
20:00−15wnw3896100 0.1 1012353
11 march, thu
thu1123:00−21wnw2210093 0.1 101420
02:00−23w2210094 0.0 101520
05:00−26wnw1210067 0.0 101719
08:00−28wnw1110044 0.0 101919
11:00−20wnw248756 0.0 1020412
14:00−16wnw45820 0.0 1020783
17:00−17wnw478745 0.0 1021691
20:00−24wsw229879 0.0 102321